[[{"header":{"parameterUnit":"m.s-1","parameterCategory":1,"la1":30.2991,"la2":30.254,"lo1":-89.0895,"lo2":-89.0444,"dy":0.0017,"dx":0.0017,"nx":28,"ny":28,"refTime":"2026-02-01T09:00:00:Z","depth":0,"parameterNumber":2,"parameterNumberName":"U-component_of_WINDS"},"data":[0,0,0,0,0,0,0,0,0,0,0,0,0,0,0,0,0,0,0,0,0,0,0,0,0,0,0,0,0,0,0,0,0,0,0,0,0,0,0,0,0,0,0,0,0,0,0,0,0,0,0,0,0,0,0,0,0,0,3.3203,3.3205,0,3.3423,3.3426,3.3428,3.3444,3.3441,3.3439,3.3436,3.3663,3.3671,3.3679,0,0,0,0,0,0,0,0,0,0,0,0,0,3.2795,3.2803,3.3202,3.3205,3.3208,3.3423,3.3426,3.3429,3.3444,3.3441,3.3438,3.3435,3.366,3.367,3.368,0,0,0,0,0,0,0,0,0,0,0,0,0,3.299,3.2805,3.3202,3.3242,3.3247,3.3422,3.3426,3.343,3.3445,3.3441,3.3437,3.3434,3.3657,3.3669,3.3681,3.3832,0,0,3.3719,3.3725,0,0,0,0,0,0,0,0,3.2978,3.3004,3.3233,3.3239,3.3246,3.3402,3.3365,3.3564,3.3446,3.337,3.3436,3.3432,3.3579,3.3598,3.3647,3.3843,3.3852,3.372,3.3728,3.3733,3.3737,0,0,0,0,0,0,0,3.2965,3.2995,3.329,3.3236,3.3244,3.3248,3.3272,3.3403,3.3492,3.3376,3.3378,3.3404,3.3582,3.3635,3.3653,3.3856,3.372,3.3731,3.3739,3.3744,3.4185,3.4189,0,0,0,0,0,0,3.2944,3.2984,3.3283,3.3296,3.31,3.3259,3.3285,3.3356,3.3491,3.3508,3.3406,3.3403,3.3616,3.3638,3.3661,3.3845,3.3733,3.3745,3.3752,3.418,3.4185,3.419,0,0,0,0,0,0,3.2935,3.297,3.3274,3.3141,3.318,3.327,3.3349,3.3362,3.3415,3.3514,3.353,3.3444,3.3614,3.3643,3.3789,3.3853,3.3751,3.3762,3.4175,3.4182,3.4188,3.4215,0,0,0,0,0,0,3.2923,3.2967,3.3025,3.3142,3.3187,3.3398,3.3353,3.3369,3.3436,3.3435,3.3554,3.357,3.3613,3.377,3.3801,3.3868,3.3772,3.417,3.4178,3.4186,3.4208,3.4221,3.4232,0,0,0,0,0,3.2909,3.3024,3.3028,3.3064,3.3261,3.3402,3.3428,3.3475,3.3442,3.3501,3.3564,3.3566,3.3841,3.3785,3.382,3.3892,3.4166,3.4176,3.4185,3.4203,3.4218,3.4232,0,0,0,0,0,0,3.2913,3.304,3.3046,3.3203,3.3291,3.3404,3.348,3.349,3.359,3.3584,3.3638,3.3665,3.3809,3.3865,3.38,3.4044,3.4,3.4017,3.4002,3.4017,3.4029,3.4011,3.3782,0,0,0,0,0,3.2932,3.3036,3.3142,3.327,3.3314,3.339,3.3453,3.3481,3.3575,3.3613,3.3687,3.3779,3.3886,3.3955,3.4059,3.4217,3.4243,3.4284,3.4295,3.4305,3.4318,3.4405,3.4424,3.4221,3.4221,3.4221,0,0,3.2973,3.3055,3.3118,3.3273,3.3345,3.3451,3.3421,3.3535,3.3614,3.363,3.3772,3.383,3.3936,3.4088,3.4159,3.4139,3.438,3.4317,3.4323,3.4332,3.4416,3.4436,3.4452,3.4228,3.4227,3.4226,0,0,3.3101,3.3174,3.3288,3.3361,3.347,3.352,3.3547,3.3659,3.3698,3.3841,3.3855,3.3951,3.4134,3.4208,3.427,3.4426,3.4431,3.4459,3.4519,3.4603,3.4619,3.4634,3.4688,3.4707,3.4472,3.4472,3.4472,0,3.3137,3.3297,3.3346,3.3459,3.3526,3.3547,3.3662,3.3731,3.3869,3.3915,3.3891,3.4121,3.4194,3.4363,3.4401,3.4451,3.4483,3.4444,3.4613,3.4628,3.4642,3.4694,3.4715,3.4475,3.4475,3.4474,3.4474,0,3.3336,3.3447,3.3526,3.3658,3.3735,3.3849,3.3914,3.3986,3.4008,3.406,3.4205,3.4293,3.4415,3.4458,3.4481,3.463,3.4615,3.4602,3.4558,3.4663,3.4713,3.4733,3.4478,3.4477,3.4477,3.4476,0,0,3.3472,3.3629,3.3657,3.3717,3.3839,3.3926,3.4041,3.4159,3.4219,3.4314,3.4411,3.4566,3.4554,3.4624,3.4656,3.473,3.4846,3.4708,3.4711,3.4729,3.5015,3.5022,3.5044,3.4851,3.4855,3.4858,3.5005,0,3.3612,3.3816,3.3863,3.4038,3.414,3.4161,3.4261,3.4347,3.4399,3.4493,3.4551,3.4658,3.4636,3.4678,3.4753,3.4816,3.4904,3.4806,3.4941,3.4945,3.4911,3.5071,3.5079,3.5214,3.5025,3.5028,3.5031,0,3.3802,3.39,3.4085,3.4193,3.4238,3.4327,3.4439,3.4529,3.4627,3.4659,3.4738,3.4762,3.4882,3.4834,3.4999,3.4932,3.499,3.503,3.5036,3.5049,3.4993,3.5086,3.5258,3.5277,3.5062,3.506,3.5058,0,3.3879,3.4058,3.4192,3.4243,3.4373,3.4434,3.4491,3.4586,3.4654,3.4752,3.4797,3.4908,3.4968,3.5054,3.5107,3.5068,3.5268,3.5225,3.5298,3.5296,3.5338,3.5334,3.5519,3.5378,3.5378,3.5378,3.5377,0,3.4029,3.4141,3.4228,3.431,3.4436,3.4489,3.4613,3.467,3.4754,3.4847,3.4873,3.496,3.5026,3.5123,3.5166,3.5295,3.5323,3.5352,3.5362,3.5349,3.5345,3.5386,3.5377,3.5383,3.5382,3.5381,3.538,0,3.4136,3.4199,3.4346,3.4457,3.4488,3.4575,3.4671,3.4751,3.4803,3.4921,3.4952,3.5035,3.5149,3.5212,3.5356,3.5384,3.5529,3.5535,3.5496,3.5499,3.5568,3.556,3.5784,3.5816,3.5656,3.5657,3.5658,0,3.4226,3.4313,3.4433,3.4498,3.4556,3.4659,3.4728,3.4785,3.4856,3.4974,3.504,3.5156,3.5251,3.5434,3.5506,3.5617,3.5624,3.5695,3.564,3.5624,3.5623,3.5616,3.5624,3.5704,3.5705,3.5706,3.5707,0,3.438,3.4407,3.4505,3.4616,3.4698,3.4787,3.4876,3.4927,3.4998,3.5077,3.5194,3.5268,3.5415,3.5529,3.5645,3.5704,3.5717,3.5724,3.5747,3.5733,3.5706,3.572,3.5519,3.5718,3.5717,3.5717,3.5716,3.5715,3.448,3.4557,3.4654,3.4763,3.4836,3.4918,3.4998,3.5061,3.516,3.5283,3.5311,3.5434,3.553,3.5687,3.5749,3.5846,3.5832,3.5865,3.5873,3.588,3.5881,3.5692,3.5868,3.5868,3.5867,3.5867,3.5867,0,3.4633,3.4696,3.4796,3.4919,3.5005,3.501,3.5109,3.518,3.5288,3.5376,3.547,3.5604,3.5715,3.5797,3.5911,3.5973,3.5982,3.6001,3.5995,3.6009,3.5888,3.5857,3.5991,3.5991,3.5991,3.5991,3.5991,3.5991,3.4722,3.4853,3.4891,3.5058,3.5121,3.5241,3.5297,3.5373,3.5443,3.5592,3.5684,3.5737,3.5823,3.5942,3.6045,3.6066,3.6106,3.6124,3.6145,3.6031,3.6017,3.6005,3.5975,3.6132,3.6132,3.6257,3.6258,3.6259]},{"header":{"parameterUnit":"m.s-1","parameterCategory":1,"la1":30.2991,"la2":30.254,"lo1":-89.0895,"lo2":-89.0444,"dy":0.0017,"dx":0.0017,"nx":28,"ny":28,"refTime":"2026-02-01T09:00:00:Z","depth":0,"parameterNumber":3,"parameterNumberName":"V-component_of_WINDS"},"data":[0,0,0,0,0,0,0,0,0,0,0,0,0,0,0,0,0,0,0,0,0,0,0,0,0,0,0,0,0,0,0,0,0,0,0,0,0,0,0,0,0,0,0,0,0,0,0,0,0,0,0,0,0,0,0,0,0,0,2.8496,2.8497,0,2.8607,2.8608,2.8609,2.8608,2.8606,2.8605,2.8604,2.8713,2.8717,2.8722,0,0,0,0,0,0,0,0,0,0,0,0,0,2.8279,2.8283,2.8496,2.8497,2.8498,2.8606,2.8608,2.8609,2.8608,2.8606,2.8605,2.8603,2.8712,2.8717,2.8722,0,0,0,0,0,0,0,0,0,0,0,0,0,2.838,2.8284,2.8495,2.8511,2.8513,2.8606,2.8608,2.861,2.8609,2.8606,2.8604,2.8602,2.871,2.8716,2.8723,2.8806,0,0,2.8742,2.8745,0,0,0,0,0,0,0,0,2.8374,2.8387,2.8507,2.851,2.8513,2.8591,2.8572,2.8675,2.8609,2.8572,2.8604,2.8601,2.8674,2.8683,2.8709,2.8811,2.8816,2.8743,2.8747,2.8749,2.8751,0,0,0,0,0,0,0,2.8367,2.8383,2.8539,2.8509,2.8513,2.8511,2.8523,2.8591,2.8634,2.8575,2.8576,2.8589,2.8675,2.8703,2.8711,2.8817,2.8743,2.8748,2.8752,2.8755,2.8992,2.8994,0,0,0,0,0,0,2.8357,2.8377,2.8536,2.8543,2.8437,2.8517,2.853,2.8568,2.8633,2.8641,2.8591,2.8588,2.8693,2.8704,2.8715,2.8816,2.8749,2.8755,2.8759,2.899,2.8993,2.8995,0,0,0,0,0,0,2.8353,2.8371,2.8531,2.846,2.848,2.8523,2.8566,2.8572,2.8599,2.8645,2.8652,2.8611,2.8691,2.8706,2.8783,2.882,2.8758,2.8764,2.8987,2.8991,2.8994,2.902,0,0,0,0,0,0,2.8346,2.837,2.8403,2.8461,2.8484,2.8599,2.8568,2.8575,2.8611,2.8609,2.8666,2.8673,2.8691,2.8774,2.879,2.8828,2.8769,2.8984,2.8988,2.8993,2.9016,2.9024,2.9031,0,0,0,0,0,2.8339,2.8405,2.8405,2.8424,2.8527,2.8601,2.8615,2.8635,2.8614,2.8647,2.8676,2.8671,2.8814,2.8782,2.88,2.884,2.8981,2.8987,2.8992,2.9012,2.9022,2.9031,0,0,0,0,0,0,2.8349,2.8413,2.8413,2.8501,2.8546,2.8601,2.8643,2.8645,2.8696,2.8691,2.8713,2.8726,2.8803,2.8829,2.8793,2.8924,2.8895,2.8904,2.8904,2.8914,2.8921,2.8913,2.8774,0,0,0,0,0,2.8362,2.8419,2.8471,2.8543,2.8566,2.8601,2.8634,2.8646,2.8693,2.8711,2.8746,2.8791,2.8845,2.8881,2.8934,2.9019,2.9031,2.9056,2.9064,2.9069,2.9077,2.9124,2.9135,2.9013,2.9013,2.9013,0,0,2.8389,2.843,2.8465,2.8546,2.8583,2.8639,2.8617,2.8678,2.872,2.872,2.8796,2.8822,2.8873,2.8955,2.8993,2.898,2.9113,2.9077,2.9081,2.9086,2.913,2.9142,2.9152,2.9017,2.9016,2.9016,0,0,2.8466,2.8504,2.8568,2.8605,2.8661,2.8683,2.8699,2.8754,2.8772,2.8849,2.8849,2.8899,2.8993,2.9029,2.906,2.915,2.9147,2.9166,2.9205,2.925,2.926,2.9269,2.93,2.9311,2.9174,2.9174,2.9174,0,2.8492,2.8579,2.86,2.8662,2.8698,2.8701,2.8765,2.88,2.8869,2.8893,2.8877,2.8995,2.9029,2.9119,2.9141,2.9166,2.9183,2.916,2.9257,2.9266,2.9274,2.9305,2.9316,2.9176,2.9176,2.9176,2.9175,0,2.8608,2.8668,2.8713,2.8781,2.8821,2.8884,2.8913,2.8951,2.8959,2.8982,2.9059,2.9101,2.9162,2.9184,2.9192,2.9275,2.9265,2.9253,2.9224,2.9287,2.9316,2.9328,2.9179,2.9178,2.9177,2.9177,0,0,2.8696,2.8775,2.8791,2.8821,2.8883,2.8929,2.8991,2.9052,2.9084,2.9131,2.9183,2.9262,2.9251,2.9286,2.9297,2.9337,2.9405,2.932,2.9322,2.9334,2.9498,2.9506,2.9519,2.9404,2.9406,2.9408,2.9493,0,2.8779,2.8891,2.8912,2.9009,2.9064,2.9068,2.9122,2.9164,2.9188,2.9237,2.9262,2.9318,2.93,2.9321,2.936,2.9388,2.9438,2.9383,2.9451,2.9453,2.9438,2.9535,2.9544,2.9623,2.9505,2.9507,2.9508,0,2.8892,2.8944,2.9047,2.91,2.9124,2.9172,2.9229,2.9277,2.9324,2.9338,2.9377,2.9384,2.9447,2.9415,2.9501,2.9463,2.9492,2.951,2.9513,2.952,2.9484,2.9544,2.9648,2.966,2.9526,2.9525,2.9523,0,2.8945,2.904,2.9114,2.914,2.9204,2.9238,2.9266,2.9312,2.9347,2.9396,2.9419,2.9474,2.9504,2.9546,2.9567,2.9542,2.9651,2.9622,2.9664,2.9663,2.9687,2.9685,2.9797,2.9706,2.9705,2.9705,2.9705,0,2.9037,2.9099,2.9139,2.9184,2.9254,2.9276,2.9344,2.9371,2.9411,2.9461,2.9467,2.9513,2.9538,2.9587,2.9604,2.9672,2.9685,2.9698,2.9701,2.9697,2.9696,2.9716,2.9711,2.9708,2.9708,2.9707,2.9706,0,2.9108,2.9137,2.9218,2.9272,2.9287,2.9336,2.9382,2.9425,2.9448,2.951,2.9526,2.9562,2.9621,2.9646,2.9717,2.9728,2.9806,2.9806,2.979,2.9791,2.9832,2.9828,2.9961,2.998,2.9876,2.9877,2.9878,0,2.9164,2.9213,2.9272,2.9307,2.9336,2.9391,2.9427,2.945,2.9487,2.9545,2.958,2.9639,2.9687,2.9779,2.9811,2.9865,2.9866,2.9909,2.9874,2.9868,2.9866,2.9863,2.9867,2.9915,2.9916,2.9917,2.9918,0,2.9261,2.9273,2.9325,2.9383,2.9426,2.9472,2.9517,2.9544,2.9574,2.9615,2.9675,2.9712,2.9785,2.9843,2.9899,2.9926,2.9926,2.9928,2.9941,2.9937,2.9926,2.9932,2.9807,2.9925,2.9924,2.9924,2.9923,2.9923,2.9326,2.9369,2.9418,2.9476,2.9512,2.9554,2.9597,2.9626,2.9677,2.974,2.975,2.9814,2.9859,2.9934,2.9963,3.0012,3.0002,3.002,3.0024,3.0028,3.0031,2.9919,3.0023,3.0022,3.0022,3.0022,3.0022,0,2.9423,2.9454,2.9507,2.9571,2.9616,2.9614,2.9663,2.9701,2.9757,2.98,2.9848,2.9916,2.9972,3.0008,3.0063,3.0096,3.0097,3.011,3.0107,3.0113,3.0038,3.0021,3.0107,3.0107,3.0107,3.0107,3.0107,3.0107,2.9478,2.9551,2.9568,2.9658,2.9689,2.9753,2.9781,2.9819,2.9853,2.993,2.9977,3.0001,3.004,3.0099,3.0149,3.0158,3.0178,3.0191,3.0199,3.0128,3.0119,3.011,3.0095,3.0195,3.0195,3.0271,3.0271,3.0272]}]]